Regional Weather Roundup
Issued by NWS

Home | Current Version | Previous Version | Text Only | Print | Product List | Glossary Off
Versions: 1 2 3 4 5 6 7 8 9 10 11 12 13 14 15 16 17 18 19 20 21 22 23 24 25 26 27 28 29 30 31 32 33 34 35 36 37 38 39 40 41 42 43 44 45 46 47 48 49 50

000
ASUS43 KBIS 301610
RWRND

NORTH DAKOTA REGIONAL WEATHER ROUNDUP
NATIONAL WEATHER SERVICE BISMARCK ND
1100 AM CDT THU OCT 30 2014

NOTE: "FAIR" INDICATES FEW OR NO CLOUDS BELOW 12,000 FEET WITH NO
SIGNIFICANT WEATHER AND/OR OBSTRUCTIONS TO VISIBILITY.


NDZ001>003-009>011-017-301700-
NORTHWEST NORTH DAKOTA

CITY           SKY/WX    TMP DP  RH WIND       PRES   REMARKS
WILLISTON      CLOUDY    37  32  82 N10       30.38R
MINOT          CLOUDY    34  28  79 N14       30.38R
MINOT AFB      CLOUDY    34  31  89 N12       30.38R
$$

NDZ018>021-031>035-040>046-301700-
SOUTHWEST NORTH DAKOTA

CITY           SKY/WX    TMP DP  RH WIND       PRES   REMARKS
BISMARCK       CLOUDY    34  30  85 N13       30.34R
DICKINSON      CLOUDY    36  33  89 N7        30.33R FOG
GARRISON         N/A     33  30  88 N8        30.35R
HETTINGER ARPT CLOUDY    37  33  85 N10       30.33R
$$

NDZ004>008-012>016-024-026-027-054-301700-
NORTHEAST NORTH DAKOTA

CITY           SKY/WX    TMP DP  RH WIND       PRES   REMARKS
GRAND FORKS    CLOUDY    38  32  79 N21G26    30.26R
GRND FRKS AFB  CLOUDY    36  32  87 N23G31    30.28R
DEVILS LAKE    CLOUDY    34  21  60 N23       30.31R
$$

NDZ022-023-025-028>030-036>039-047>053-301700-
SOUTHEAST NORTH DAKOTA

CITY           SKY/WX    TMP DP  RH WIND       PRES   REMARKS
FARGO          PTSUNNY   40  35  83 N18G25    30.22R
JAMESTOWN      CLOUDY    34  31  88 N15       30.27R
$$




USA.gov is the U.S. government's official web portal to all federal, state and local government web resources and services.